Regional Weather Roundup
Issued by NWS Newport/Morehead, NC

Current Version | Previous Version | Text Only | Print | Product List | Glossary Off
Versions: 1 2 3 4 5 6 7 8 9 10 11 12 13 14 15 16 17 18 19 20 21 22 23 24 25 26 27 28 29 30 31 32 33 34 35 36 37 38 39 40 41 42 43 44 45 46 47 48 49 50
000 ASUS42 KMHX 191822 RWRMHX WEATHER ROUNDUP FOR EASTERN NORTH CAROLINA NATIONAL WEATHER SERVICE NEWPORT/MOREHEAD CITY NC 200 PM EDT FRI SEP 19 2014 NOTE: "FAIR" INDICATES FEW OR NO CLOUDS BELOW 12,000 FEET WITH NO SIGNIFICANT WEATHER AND/OR OBSTRUCTIONS TO VISIBILITY NCZ015>017-031-032-045>047-102-103-191900- NORTH COAST CITY SKY/WX TMP DP RH WIND PRES REMARKS EDENTON MOSUNNY 77 59 54 SE15 30.20S ELIZABETH CITY SUNNY 78 58 49 NE9 30.21F KITTY HAWK CLEAR 77 58 51 NE8 30.20S MANTEO SUNNY 76 59 55 NE15G21 30.21S $$ NCZ045>047-081-094-103-104-191900- CENTRAL COAST CITY SKY/WX TMP DP RH WIND PRES REMARKS FRISCO PTSUNNY 76 64 66 NE10G20 30.17F SWANQUARTER N/A 79 N/A N/A NE15 30.12F $$ NCZ095-097-098-100-101-191900- SOUTHERN COAST CITY SKY/WX TMP DP RH WIND PRES REMARKS BEAUFORT CLOUDY 78 64 61 NE10G21 30.15S CEDAR ISLAND N/A 75 N/A N/A NE22 30.21S JACKSONVILLE PTSUNNY 79 63 57 NE12 30.14F NEWPORT NOT AVBL PINEY ISLAND MOCLDY 78 63 59 NE20G26 30.16S WILMINGTON PTSUNNY 79 66 64 NE16G29 30.13S $$ NCZ011>013-027>030-043-044-078>080-089-090>093-098-191900- COASTAL PLAIN CITY SKY/WX TMP DP RH WIND PRES REMARKS AHOSKIE MOSUNNY 75 60 58 E7 30.21S CLINTON SUNNY 81 61 50 E7 30.16R ELIZABETHTOWN MOSUNNY 80 62 53 E5 30.14F GOLDSBORO SUNNY 81 61 49 E14 30.15S GREENVILLE SUNNY 81 61 50 NE10G18 30.19S HAVELOCK PTSUNNY 79 61 53 NE21G29 30.17S KENANSVILLE PTSUNNY 80 59 47 E8 30.16F KINSTON SUNNY 81 55 41 MISG 30.17F NEW BERN MOSUNNY 80 57 45 E13G22 30.18S RICHLANDS MOSUNNY 79 61 53 NE14 30.16S ROANOKE RAPIDS NOT AVBL ROCKY MOUNT MOSUNNY 79 59 50 E8 30.18F WASHINGTON SUNNY 79 59 51 E12G18 30.18S WHITEVILLE PTSUNNY 80 65 61 E15G23 30.12F $$ AMZ130-135-150-152-154-156-158-170-250-252-270-ANZ085-086-088-633-658-670-191900- MARINE OBSERVATIONS STATION/POSITION TIME TEMP WIND PRES WAVE SWELL AIR SEA DIR/SP/G HT/PER HT/PER (UTC) (F) (DEG/KT/KT) (MB) (FT/S) (FT/S) CHESAPEAKE LIGHT 1800 71 60/ 12/ 13 1024.3 BUOY 44014 1800 73 76 50/ 12/ 16 1022.8 4/ 9 3/ 9 DUCK 1800 73 75 60/ 12/ 14 1022.4 2E DUCK 1800 N/A 4/ 7 2/11 OREGON INLET 1800 75 73 40/ 13/ 18 1022.3 BUOY 44095 1800 76 N/A 5/ 5 2/11 20E OREGON INLET NOT AVBL HATTERAS CG 1800 75 75 50/ 12/ 19 1022.0 DIAMOND BUOY 1800 78 50/ 17/ 21 1020.9 6/ 7 2/ 9 CAPE LOOKOUT 1800 73 90/ 22/ 33 1021.0 BEAUFORT LAB 1800 77 77 30/ 10/ 15 1020.2 30 SE NEW RIVER 1800 79 82 100/ 19/ 23 1019.9 5/ 6 2/10 5 SE WRIGHTSVILL 1800 74 80 50/ 19/ 23 N/A BUOY 41002 1719 79 82 60/ 14/ 17 1018.0 4/ 7 2/ 9 BUOY 41004 1800 77 82 70/ 21/ 25 1017.1 4/ 6 2/ 9 $$

USA.gov is the U.S. government's official web portal to all federal, state and local government web resources and services.